Theta_e
335 333 329 328 327 325 323 322 319 315 316 322 322 329 328 329 330 330 329 328 326 329 327 326 327 329 329 327 327 329 330 329 331 332 332 334 335 339
332 333 330 326 325 324 324 323 322 319 315 321 323 327 328 327 325 326 324 327 328 327 325 325 326 328 328 327 326 326 327 327 328 328 332 333 335 337
334 331 327 327 324 324 324 323 322 322 317 319 322 323 324 322 321 322 322 322 320 328 325 325 326 327 326 325 324 324 325 324 324 324 326 327 330 333
331 329 324 323 325 326 323 324 323 322 318 317 319 316 319 321 321 321 319 320 324 327 325 324 324 324 323 323 323 323 322 321 321 322 322 323 325 327
330 326 322 323 323 322 322 320 318 317 317 313 313 314 316 317 318 321 322 325 322 327 328 326 325 324 322 321 321 320 318 317 317 317 318 319 321 323
328 324 322 321 320 320 319 320 318 316 315 312 311 312 313 318 317 315 315 318 318 320 325 323 324 326 324 323 323 322 318 316 315 315 316 315 316 318
327 323 320 315 311 312 312 314 315 312 310 309 309 310 311 313 314 315 314 316 320 319 319 320 319 321 322 325 326 322 319 317 316 315 315 314 314 315
325 323 322 316 315 312 310 310 311 311 310 309 308 310 314 315 315 315 315 314 312 321 318 317 320 319 320 321 321 321 319 317 317 317 316 315 314 314
325 324 320 319 317 315 315 313 314 311 310 312 310 312 314 316 317 315 316 315 315 318 319 314 319 316 319 319 322 320 318 317 317 316 315 314 313 312
325 323 322 319 316 310 312 314 314 315 315 310 311 314 316 317 316 315 316 319 318 316 322 313 316 314 317 318 322 320 318 317 316 315 314 312 310 309
323 322 318 316 306 306 311 314 315 315 312 311 311 312 312 312 312 314 313 312 310 312 317 314 313 313 314 315 320 318 317 316 314 314 313 312 309 307
319 319 306 308 305 304 309 313 311 310 310 313 317 317 317 319 315 317 315 311 310 310 317 312 311 312 309 314 316 319 321 313 312 311 310 309 307 311
316 314 314 304 303 303 303 311 306 306 312 313 313 313 314 314 313 315 318 314 311 311 316 315 312 311 310 309 313 317 320 319 318 314 308 307 306 307
316 316 313 303 302 302 304 302 303 305 312 311 311 310 310 311 312 314 317 317 317 316 319 319 312 310 309 309 309 314 319 318 316 312 310 308 306 307
316 308 306 303 303 304 303 304 304 310 309 309 309 309 310 311 314 316 316 322 323 322 317 319 314 312 311 309 309 311 313 313 314 309 309 305 305 309
306 310 310 306 305 310 308 309 310 310 309 309 308 309 310 309 309 310 310 311 310 311 319 319 317 315 310 310 310 310 311 308 310 307 308 304 304 310
312 313 312 313 312 312 310 310 310 310 309 309 308 308 308 308 308 310 309 309 308 308 309 311 318 318 313 312 308 310 308 308 308 306 305 301 303 308
307 311 312 312 311 310 308 308 310 309 309 308 308 307 307 307 307 309 309 309 307 307 308 309 309 308 308 309 311 308 307 305 306 306 303 298 299 303
309 311 312 313 312 309 308 308 308 309 311 308 307 307 308 307 307 307 308 308 306 307 307 309 308 306 300 298 307 309 304 303 304 303 301 299 298 301
310 311 312 313 313 309 309 308 308 308 307 307 307 307 308 307 307 307 307 306 306 306 306 307 307 306 303 302 303 308 304 303 301 301 298 299 301 303
310 310 312 314 311 310 311 311 310 307 306 307 307 307 307 308 307 307 307 302 303 305 304 304 307 309 310 309 303 302 305 305 303 299 297 295 296 297
310 311 311 313 310 310 311 310 308 307 307 306 306 307 308 308 306 306 306 305 305 304 304 306 309 307 307 302 300 300 301 303 304 302 299 297 295 291
310 311 310 309 308 308 309 308 305 304 306 306 306 307 308 305 306 306 306 305 305 304 304 304 305 305 305 302 301 300 300 300 299 298 297 297 298 299
Wind_Speed
3 3 3 3 4 5 5 5 7 7 8 6 7 7 8 9 9 11 11 14 19 12 10 13 16 14 11 14 13 17 15 15 13 6 11 17 19 17
2 2 4 5 4 4 5 4 4 6 7 8 7 8 9 10 11 12 13 17 12 9 6 11 14 13 12 13 15 14 14 14 16 12 10 10 12 15
2 3 4 4 6 5 4 5 4 5 8 8 9 9 10 10 11 11 12 11 10 4 5 11 13 11 12 14 12 12 16 17 14 15 16 14 12 13
2 2 4 4 5 3 5 4 5 6 7 11 9 10 9 10 11 12 9 10 9 6 9 11 13 12 11 12 12 14 15 15 13 16 15 15 16 15
2 3 4 4 4 6 6 7 6 7 7 9 10 8 8 7 11 10 9 9 8 9 12 13 12 12 12 10 10 11 9 10 19 14 12 16 15 15
2 3 4 5 5 7 7 6 6 9 7 8 8 8 8 9 8 9 10 9 10 11 7 8 16 11 15 13 11 10 5 12 13 16 15 13 12 13
2 1 5 6 4 5 7 8 9 9 8 9 9 8 9 10 10 10 11 11 10 9 10 11 11 10 10 10 3 2 6 11 13 13 13 13 13 13
3 1 2 7 1 7 3 6 7 8 10 9 10 10 9 10 10 10 12 12 10 9 11 11 10 10 11 10 5 3 9 13 13 14 12 12 12 14
2 1 3 4 5 8 5 9 12 12 11 8 11 11 12 11 12 12 12 12 12 13 11 12 10 12 11 11 4 5 9 12 12 13 12 14 14 15
2 1 2 4 7 8 10 9 9 9 5 8 10 11 11 11 11 12 15 14 12 11 11 10 12 13 12 10 2 3 8 9 9 11 11 11 12 14
3 1 4 4 8 8 10 8 9 8 6 8 11 14 15 15 14 10 10 12 12 12 10 11 13 14 13 10 9 11 11 8 8 8 11 13 12 15
4 5 4 5 5 6 9 9 10 10 12 11 9 7 11 9 16 10 10 12 12 12 11 13 14 14 14 9 11 11 12 6 10 10 10 13 14 9
2 3 5 4 3 5 8 7 10 12 12 9 8 7 8 8 8 9 10 11 12 12 12 12 13 14 13 15 11 10 13 12 11 9 16 15 13 15
2 1 4 2 4 6 9 7 12 14 6 7 7 8 9 9 9 10 11 10 10 13 13 10 12 14 14 15 14 10 12 11 11 13 13 16 16 15
1 6 4 3 10 10 9 9 14 6 7 7 8 8 9 10 12 11 11 11 11 11 8 11 10 13 13 13 14 13 13 13 9 13 13 13 11 10
5 5 1 7 8 7 8 6 5 6 7 8 8 9 9 9 9 10 11 11 12 10 11 10 10 12 12 12 13 9 11 9 12 12 12 10 11 6
3 4 6 4 4 3 4 4 4 6 6 7 8 8 9 10 10 11 10 11 11 12 12 11 11 11 10 15 13 10 9 10 10 13 13 11 9 8
6 5 3 3 3 4 4 4 4 4 7 7 8 8 9 10 10 10 11 11 12 12 13 12 13 11 11 13 7 10 7 10 13 11 11 11 9 8
7 3 3 2 3 3 3 4 5 6 6 7 7 8 9 9 10 11 11 11 12 13 13 12 12 12 12 12 13 4 9 10 13 12 9 9 11 10
7 4 3 2 2 2 3 4 4 5 6 7 7 8 9 10 10 12 12 14 13 13 13 12 11 12 13 9 13 9 13 10 11 11 10 8 8 13
5 5 3 2 1 1 2 2 3 5 5 7 7 8 9 9 10 10 10 10 11 12 14 14 12 13 12 11 11 11 11 13 6 8 9 10 9 5
5 5 4 2 1 1 1 2 3 4 5 6 7 7 8 9 10 11 11 12 11 12 13 13 13 14 12 12 12 14 11 13 13 8 21 17 8 7
6 5 6 5 4 3 1 2 3 4 4 5 7 7 7 8 9 9 10 11 11 11 14 13 12 13 13 13 13 11 19 15 13 13 12 21 20 16
Wind_Direction
93 63 350 17 353 339 329 333 332 327 333 7 337 1 333 329 345 331 325 338 307 307 317 323 315 312 317 324 326 320 333 316 317 300 212 251 269 266
71 69 346 18 323 344 337 325 315 314 296 326 338 331 337 324 337 328 324 297 306 287 313 312 308 312 320 319 319 318 317 325 324 320 289 259 264 262
99 59 44 6 1 356 333 340 321 316 312 324 318 335 320 331 325 329 311 309 308 317 307 305 302 303 313 315 316 309 314 319 320 317 304 293 275 258
116 60 33 12 346 28 321 351 348 314 305 311 326 319 334 325 330 315 324 318 321 305 301 281 273 282 284 290 296 303 313 312 317 312 300 301 292 284
96 65 36 17 16 1 338 338 337 324 305 319 306 322 326 345 328 323 331 312 312 315 254 243 254 258 269 273 286 294 296 302 314 310 309 307 297 293
100 56 43 27 7 355 332 332 341 314 325 303 318 324 326 351 329 336 327 334 330 322 319 339 292 270 246 240 238 252 283 291 289 288 293 283 279 283
121 122 74 45 37 2 331 349 328 326 327 328 321 321 344 341 337 334 329 325 326 328 342 326 326 325 321 237 226 85 275 290 293 289 286 282 279 268
180 123 147 207 21 212 246 298 305 320 314 323 321 338 329 324 334 333 314 331 323 338 321 310 335 320 322 316 73 254 259 271 276 283 290 280 268 266
196 263 282 66 290 340 307 253 256 228 243 297 306 314 313 325 322 314 322 315 309 301 314 327 323 319 327 324 163 298 272 276 281 291 287 293 303 281
206 228 326 344 39 335 323 313 316 311 322 314 315 302 304 321 309 306 299 288 297 322 332 313 331 321 324 324 175 294 277 268 273 283 293 295 302 302
181 63 344 340 42 341 310 321 319 321 334 251 261 265 265 264 264 302 322 314 322 329 341 336 325 318 327 315 306 352 300 253 266 265 294 300 286 296
208 143 102 17 2 329 322 330 329 339 326 324 305 274 231 266 226 247 311 319 319 317 349 335 323 329 320 318 322 333 306 51 352 297 294 295 286 293
210 180 109 93 326 327 308 331 327 311 302 297 311 327 337 334 334 343 322 316 315 317 337 328 323 321 320 320 311 327 310 3 340 334 330 307 291 286
244 117 103 133 273 271 297 332 292 285 313 325 335 339 341 333 339 328 313 312 310 298 304 314 314 323 324 314 318 333 322 3 335 341 325 322 314 296
16 63 93 245 256 240 226 262 272 331 335 334 342 342 338 334 323 322 324 314 303 302 320 325 322 325 310 316 320 336 330 341 341 339 326 332 322 317
159 194 201 287 275 284 262 235 324 352 333 342 338 337 330 334 328 337 324 329 324 327 335 332 337 324 317 330 316 325 350 329 337 338 323 331 319 340
173 218 227 253 296 321 326 338 330 342 345 343 337 337 337 340 341 330 333 330 331 333 333 335 349 324 355 331 319 359 332 320 338 336 332 329 319 329
203 234 231 274 310 329 331 337 339 349 3 331 342 339 340 336 341 328 338 338 335 337 333 338 338 344 354 331 358 328 328 330 333 343 339 326 317 328
237 204 234 272 310 324 334 340 350 14 317 341 338 339 337 337 329 339 340 348 340 335 335 340 341 348 339 332 331 75 353 352 332 341 343 330 314 323
257 208 205 236 291 324 338 353 356 344 346 337 337 339 339 340 341 346 342 347 344 336 336 341 348 348 325 338 324 347 55 357 338 337 344 323 302 313
192 185 199 214 287 303 359 350 327 346 328 324 344 342 345 337 343 340 343 342 329 347 341 339 346 318 317 5 340 338 346 359 8 5 0 336 334 335
182 183 171 178 157 257 322 315 304 320 335 340 344 346 346 337 345 349 348 344 349 351 345 332 346 350 344 9 343 342 352 351 355 74 38 10 344 340
185 185 179 148 177 188 278 303 324 338 351 350 351 350 339 348 349 349 352 348 348 357 349 338 6 352 355 351 357 348 359 359 357 355 17 4 5 356